User: anonymous   Login
Location: Unspecified
(0.0000°N, 0.0000°E)
Time: 14:44:17
(UTC+00:00)
Language:

PRISMA (TANGO) - Orbit

View from above orbital plane
View from above orbital plane
View from above satellite
View from above satellite

Ground track
Ground track

The orbit data is extracted from the following two-line orbital elements,

1 36827U 10028F   17206.08580406 +.00000020 +00000-0 +19410-4 0  9995
2 36827 098.4697 014.0547 0041475 286.6592 073.0046 14.42278484234318
Epoch (UTC): 25 July 2017 02:03:33
Eccentricity: 0.0041475
inclination: 98.4697°
perigee height: 721 km
apogee height: 780 km
right ascension of ascending node: 14.0547°
argument of perigee: 286.6592°
revolutions per day: 14.42278484
mean anomaly at epoch: 73.0046°
orbit number at epoch: 23431

The dashed part of the orbit path shows where the satellite is in the earth's shadow,  

DLR